Location: Newark
(40.9833°N, 0.0333°W)
Time: 03:46:54
(UTC+00:00)

Transit 2A Rocket - Pass Details

Date: 28 October 2020
Orbit: 588 x 914 km, 66.7° (Epoch: 26 November)

Event Time Altitude Azimuth Distance (km) Brightness Sun altitude
Rises 17:46:22 0° 335° (NNW) 3,293 8.5 -9.2°
Reaches altitude 10° 17:49:02 10° 343° (NNW) 2,305 7.6 -9.7°
Maximum altitude 17:53:57 40° 52° (NE) 1,056 5.3 -10.6°
Drops below altitude 10° 17:58:25 10° 122° (ESE) 2,093 6.8 -11.5°
Enters shadow 17:58:59 - 125° (SE) 2,302 7.0 -11.6°
Sets 18:00:44 0° 130° (SE) 2,956 - -11.9°
